Time,TemperatureF,DewpointF,PressureIn,WindDirection,WindDirectionDegrees,WindSpeedMPH,WindSpeedGustMPH,Humidity,HourlyPrecipIn,Conditions,Clouds,dailyrainin,SoftwareType,DateUTC
2013-02-18 00:02:00,28.0,17.0,30.10,SSE,165,5.0,13.0,63,0.00,,,0.00,,2013-02-18 05:02:00,
2013-02-18 00:11:00,28.0,17.0,30.10,SSE,165,5.0,13.0,63,0.00,,,0.00,,2013-02-18 05:11:00,
2013-02-18 00:21:00,28.0,17.0,30.09,South,178,3.0,10.0,64,0.00,,,0.00,,2013-02-18 05:21:00,
2013-02-18 00:31:00,28.0,18.0,30.09,South,180,8.0,12.0,65,0.00,,,0.00,,2013-02-18 05:31:00,
2013-02-18 00:41:00,28.0,18.0,30.09,South,180,8.0,12.0,65,0.00,,,0.00,,2013-02-18 05:41:00,
2013-02-18 00:52:00,28.0,18.0,30.09,South,183,7.0,8.0,65,0.00,,,0.00,,2013-02-18 05:52:00,
2013-02-18 01:02:00,29.0,19.0,30.09,South,177,7.0,9.0,66,0.00,,,0.00,,2013-02-18 06:02:00,
2013-02-18 01:11:00,29.0,19.0,30.09,South,177,7.0,9.0,66,0.00,,,0.00,,2013-02-18 06:11:00,
2013-02-18 01:21:00,29.0,19.0,30.08,SSE,157,3.0,9.0,67,0.00,,,0.00,,2013-02-18 06:21:00,
2013-02-18 01:32:00,29.0,20.0,30.08,South,176,6.0,12.0,68,0.00,,,0.00,,2013-02-18 06:32:00,
2013-02-18 01:41:00,29.0,20.0,30.07,South,177,9.0,12.0,68,0.00,,,0.00,,2013-02-18 06:41:00,
2013-02-18 01:51:00,29.0,20.0,30.07,South,177,9.0,12.0,68,0.00,,,0.00,,2013-02-18 06:51:00,
2013-02-18 02:01:00,30.0,20.0,30.06,South,181,10.0,13.0,67,0.00,,,0.00,,2013-02-18 07:01:00,
2013-02-18 02:11:00,30.0,20.0,30.06,South,181,10.0,13.0,67,0.00,,,0.00,,2013-02-18 07:11:00,
2013-02-18 02:21:00,30.0,20.0,30.05,SSW,197,8.0,10.0,67,0.00,,,0.00,,2013-02-18 07:21:00,
2013-02-18 02:32:00,30.0,21.0,30.05,South,188,8.0,12.0,68,0.00,,,0.00,,2013-02-18 07:32:00,
2013-02-18 02:42:00,30.0,21.0,30.05,South,188,8.0,12.0,68,0.00,,,0.00,,2013-02-18 07:42:00,
2013-02-18 02:51:00,30.0,21.0,30.04,South,183,9.0,14.0,68,0.00,,,0.00,,2013-02-18 07:51:00,
2013-02-18 03:01:00,31.0,22.0,30.03,South,190,10.0,15.0,68,0.00,,,0.00,,2013-02-18 08:01:00,
2013-02-18 03:11:00,31.0,22.0,30.03,South,176,10.0,14.0,68,0.00,,,0.00,,2013-02-18 08:11:00,
2013-02-18 03:21:00,31.0,22.0,30.03,South,176,10.0,14.0,68,0.00,,,0.00,,2013-02-18 08:21:00,
2013-02-18 03:32:00,31.0,22.0,30.02,South,181,7.0,12.0,68,0.00,,,0.00,,2013-02-18 08:32:00,
2013-02-18 03:42:00,31.0,22.0,30.02,South,181,7.0,12.0,68,0.00,,,0.00,,2013-02-18 08:42:00,
2013-02-18 03:52:00,31.0,22.0,30.02,SSE,161,9.0,14.0,68,0.00,,,0.00,,2013-02-18 08:52:00,
2013-02-18 04:02:00,31.0,22.0,30.01,SSW,194,8.0,10.0,68,0.00,,,0.00,,2013-02-18 09:02:00,
2013-02-18 04:11:00,31.0,22.0,30.01,SSW,194,8.0,10.0,68,0.00,,,0.00,,2013-02-18 09:11:00,
2013-02-18 04:22:00,31.0,22.0,30.00,South,183,10.0,15.0,68,0.00,,,0.00,,2013-02-18 09:22:00,
2013-02-18 04:32:00,32.0,22.0,29.99,South,185,13.0,21.0,67,0.00,,,0.00,,2013-02-18 09:32:00,
2013-02-18 04:41:00,32.0,22.0,29.99,South,185,13.0,21.0,67,0.00,,,0.00,,2013-02-18 09:41:00,
2013-02-18 04:51:00,32.0,22.0,29.98,South,185,12.0,16.0,66,0.00,,,0.00,,2013-02-18 09:51:00,
2013-02-18 05:01:00,32.0,22.0,29.97,South,176,14.0,20.0,66,0.00,,,0.00,,2013-02-18 10:01:00,
2013-02-18 05:11:00,32.0,22.0,29.97,South,176,14.0,20.0,66,0.00,,,0.00,,2013-02-18 10:11:00,
2013-02-18 05:21:00,32.0,22.0,29.96,SSW,193,12.0,16.0,66,0.00,,,0.00,,2013-02-18 10:21:00,
2013-02-18 05:31:00,32.0,22.0,29.96,South,173,12.0,15.0,67,0.00,,,0.00,,2013-02-18 10:31:00,
2013-02-18 05:42:00,32.0,22.0,29.96,South,173,12.0,15.0,67,0.00,,,0.00,,2013-02-18 10:42:00,
2013-02-18 05:52:00,32.0,22.0,29.95,South,175,12.0,18.0,67,0.00,,,0.00,,2013-02-18 10:52:00,
2013-02-18 06:11:00,32.0,23.0,29.94,South,187,12.0,20.0,68,0.00,,,0.00,,2013-02-18 11:11:00,
2013-02-18 06:22:00,32.0,23.0,29.94,SSW,195,9.0,14.0,68,0.00,,,0.00,,2013-02-18 11:22:00,
2013-02-18 06:32:00,32.0,23.0,29.93,SSW,200,8.0,14.0,69,0.00,,,0.00,,2013-02-18 11:32:00,
2013-02-18 06:42:00,32.0,23.0,29.93,SSW,200,8.0,14.0,69,0.00,,,0.00,,2013-02-18 11:42:00,
2013-02-18 06:52:00,32.0,23.0,29.93,South,190,10.0,15.0,70,0.00,,,0.00,,2013-02-18 11:52:00,
2013-02-18 07:02:00,32.0,24.0,29.93,SSW,201,10.0,15.0,71,0.00,,,0.00,,2013-02-18 12:02:00,
2013-02-18 07:11:00,32.0,24.0,29.93,SSW,201,10.0,15.0,71,0.00,,,0.00,,2013-02-18 12:11:00,
2013-02-18 07:22:00,32.0,24.0,29.92,SSW,192,12.0,16.0,72,0.00,,,0.00,,2013-02-18 12:22:00,
2013-02-18 07:32:00,32.0,24.0,29.91,SSW,202,10.0,14.0,72,0.00,,,0.00,,2013-02-18 12:32:00,
2013-02-18 07:42:00,32.0,24.0,29.91,SSW,202,10.0,14.0,72,0.00,,,0.00,,2013-02-18 12:42:00,
2013-02-18 07:52:00,32.0,24.0,29.91,SSW,197,13.0,17.0,73,0.00,,,0.00,,2013-02-18 12:52:00,
2013-02-18 08:03:00,32.0,25.0,29.91,SSW,199,10.0,16.0,74,0.00,,,0.00,,2013-02-18 13:03:00,
2013-02-18 08:12:00,32.0,25.0,29.91,SSW,199,10.0,16.0,74,0.00,,,0.00,,2013-02-18 13:12:00,
2013-02-18 08:32:00,33.0,26.0,29.90,South,190,12.0,16.0,75,0.00,,,0.00,,2013-02-18 13:32:00,
2013-02-18 08:42:00,33.0,26.0,29.90,South,190,12.0,16.0,75,0.00,,,0.00,,2013-02-18 13:42:00,
2013-02-18 08:52:00,33.0,26.0,29.90,SSW,206,9.0,13.0,75,0.00,,,0.00,,2013-02-18 13:52:00,
2013-02-18 09:02:00,34.0,27.0,29.89,SSW,202,10.0,14.0,74,0.00,,,0.00,,2013-02-18 14:02:00,
2013-02-18 09:11:00,34.0,27.0,29.89,SSW,202,10.0,14.0,74,0.00,,,0.00,,2013-02-18 14:11:00,
2013-02-18 09:22:00,35.0,28.0,29.89,SSW,207,12.0,18.0,74,0.00,,,0.00,,2013-02-18 14:22:00,
2013-02-18 09:33:00,37.0,29.0,29.88,SW,223,9.0,13.0,73,0.00,,,0.00,,2013-02-18 14:33:00,
2013-02-18 09:41:00,37.0,29.0,29.88,SW,223,9.0,13.0,73,0.00,,,0.00,,2013-02-18 14:41:00,
2013-02-18 09:53:00,39.0,30.0,29.88,SSW,213,10.0,16.0,71,0.00,,,0.00,,2013-02-18 14:53:00,
2013-02-18 10:02:00,41.0,32.0,29.88,SW,215,16.0,25.0,69,0.00,,,0.00,,2013-02-18 15:02:00,
2013-02-18 10:22:00,41.0,32.0,29.88,WSW,257,8.0,13.0,69,0.00,,,0.00,,2013-02-18 15:22:00,
2013-02-18 10:32:00,43.0,34.0,29.86,SSW,210,12.0,14.0,69,0.00,,,0.00,,2013-02-18 15:32:00,
2013-02-18 10:52:00,44.0,34.0,29.86,SSW,204,10.0,18.0,68,0.00,,,0.00,,2013-02-18 15:52:00,
2013-02-18 11:02:00,46.0,36.0,29.85,SSW,204,12.0,20.0,68,0.00,,,0.00,,2013-02-18 16:02:00,
2013-02-18 11:22:00,47.0,37.0,29.85,SW,216,8.0,15.0,67,0.00,,,0.00,,2013-02-18 16:22:00,
2013-02-18 11:32:00,49.0,39.0,29.84,SSW,201,10.0,14.0,67,0.00,,,0.00,,2013-02-18 16:32:00,
2013-02-18 11:52:00,50.0,39.0,29.84,SSW,195,14.0,20.0,66,0.00,,,0.00,,2013-02-18 16:52:00,
2013-02-18 12:03:00,51.0,40.0,29.83,SW,233,12.0,18.0,65,0.00,,,0.00,,2013-02-18 17:03:00,
2013-02-18 12:22:00,51.0,40.0,29.83,SW,218,15.0,29.0,66,0.00,,,0.00,,2013-02-18 17:22:00,
2013-02-18 12:32:00,51.0,40.0,29.83,WSW,238,13.0,15.0,67,0.00,,,0.00,,2013-02-18 17:32:00,
2013-02-18 12:42:00,51.0,40.0,29.83,WSW,238,13.0,15.0,67,0.00,,,0.00,,2013-02-18 17:42:00,
2013-02-18 12:52:00,52.0,41.0,29.82,SW,219,16.0,26.0,66,0.00,,,0.00,,2013-02-18 17:52:00,
2013-02-18 13:02:00,52.0,41.0,29.82,SW,234,13.0,22.0,66,0.00,,,0.00,,2013-02-18 18:02:00,
2013-02-18 13:12:00,52.0,41.0,29.82,SW,234,13.0,22.0,66,0.00,,,0.00,,2013-02-18 18:12:00,
2013-02-18 13:22:00,53.0,42.0,29.81,SW,219,14.0,18.0,66,0.00,,,0.00,,2013-02-18 18:22:00,
2013-02-18 13:32:00,53.0,42.0,29.79,SW,232,16.0,24.0,67,0.00,,,0.00,,2013-02-18 18:32:00,
2013-02-18 13:42:00,53.0,42.0,29.79,SW,232,16.0,24.0,67,0.00,,,0.00,,2013-02-18 18:42:00,
2013-02-18 13:52:00,55.0,44.0,29.78,SW,231,13.0,17.0,67,0.00,,,0.00,,2013-02-18 18:52:00,
2013-02-18 14:02:00,56.0,46.0,29.77,WSW,243,16.0,21.0,68,0.00,,,0.00,,2013-02-18 19:02:00,
2013-02-18 14:12:00,56.0,46.0,29.77,WSW,243,16.0,21.0,68,0.00,,,0.00,,2013-02-18 19:12:00,
2013-02-18 14:22:00,56.0,46.0,29.76,SW,228,14.0,21.0,68,0.00,,,0.00,,2013-02-18 19:22:00,
2013-02-18 14:33:00,55.0,45.0,29.76,SW,227,12.0,17.0,69,0.00,,,0.00,,2013-02-18 19:33:00,
2013-02-18 14:42:00,55.0,45.0,29.76,SW,227,12.0,17.0,69,0.00,,,0.00,,2013-02-18 19:42:00,
2013-02-18 14:52:00,55.0,45.0,29.75,SW,218,15.0,22.0,70,0.00,,,0.00,,2013-02-18 19:52:00,
2013-02-18 15:02:00,54.0,46.0,29.74,SW,224,9.0,13.0,73,0.00,,,0.00,,2013-02-18 20:02:00,
2013-02-18 15:12:00,54.0,46.0,29.74,SW,224,9.0,13.0,73,0.00,,,0.00,,2013-02-18 20:12:00,
2013-02-18 15:23:00,53.0,45.0,29.74,SW,231,12.0,18.0,74,0.00,,,0.00,,2013-02-18 20:23:00,
2013-02-18 15:33:00,53.0,46.0,29.73,SW,225,10.0,16.0,76,0.00,,,0.00,,2013-02-18 20:33:00,
2013-02-18 15:42:00,53.0,46.0,29.73,SW,225,10.0,16.0,76,0.00,,,0.00,,2013-02-18 20:42:00,
2013-02-18 15:52:00,53.0,46.0,29.72,SW,223,9.0,17.0,77,0.00,,,0.00,,2013-02-18 20:52:00,
2013-02-18 16:03:00,52.0,47.0,29.72,SW,225,13.0,13.0,82,0.00,,,0.00,,2013-02-18 21:03:00,
2013-02-18 16:12:00,52.0,47.0,29.72,SW,225,13.0,13.0,82,0.00,,,0.00,,2013-02-18 21:12:00,
2013-02-18 16:22:00,52.0,47.0,29.72,SW,228,12.0,16.0,84,0.00,,,0.00,,2013-02-18 21:22:00,
2013-02-18 16:32:00,51.0,48.0,29.71,SW,225,14.0,16.0,90,0.01,,,0.01,,2013-02-18 21:32:00,
2013-02-18 16:42:00,51.0,48.0,29.71,SW,225,14.0,16.0,90,0.01,,,0.01,,2013-02-18 21:42:00,
2013-02-18 16:52:00,50.0,48.0,29.70,SW,216,10.0,17.0,92,0.01,,,0.01,,2013-02-18 21:52:00,
2013-02-18 17:02:00,50.0,49.0,29.70,SW,225,9.0,14.0,95,0.03,,,0.03,,2013-02-18 22:02:00,
2013-02-18 17:12:00,50.0,49.0,29.70,SW,220,8.0,12.0,95,0.03,,,0.03,,2013-02-18 22:12:00,
2013-02-18 17:22:00,50.0,49.0,29.70,SW,220,8.0,12.0,95,0.03,,,0.03,,2013-02-18 22:22:00,
2013-02-18 17:33:00,50.0,48.0,29.70,SW,233,18.0,23.0,93,0.04,,,0.05,,2013-02-18 22:33:00,
2013-02-18 17:42:00,50.0,48.0,29.70,SW,233,18.0,23.0,93,0.04,,,0.05,,2013-02-18 22:42:00,
2013-02-18 17:52:00,50.0,47.0,29.70,SW,235,16.0,20.0,91,0.04,,,0.05,,2013-02-18 22:52:00,
2013-02-18 18:02:00,50.0,47.0,29.70,SW,235,21.0,32.0,90,0.03,,,0.06,,2013-02-18 23:02:00,
2013-02-18 18:12:00,50.0,47.0,29.70,SW,235,21.0,32.0,90,0.03,,,0.06,,2013-02-18 23:12:00,
2013-02-18 18:22:00,49.0,46.0,29.69,WSW,238,18.0,25.0,91,0.04,,,0.07,,2013-02-18 23:22:00,
2013-02-18 18:33:00,48.0,46.0,29.68,SSW,212,10.0,17.0,92,0.02,,,0.07,,2013-02-18 23:33:00,
2013-02-18 18:42:00,48.0,46.0,29.68,SSW,212,10.0,17.0,92,0.02,,,0.07,,2013-02-18 23:42:00,
2013-02-18 18:52:00,48.0,45.0,29.67,SW,225,17.0,22.0,91,0.02,,,0.07,,2013-02-18 23:52:00,
2013-02-18 19:03:00,48.0,45.0,29.66,SW,214,15.0,17.0,90,0.01,,,0.07,,2013-02-19 00:03:00,
2013-02-18 19:12:00,48.0,45.0,29.66,SW,214,15.0,17.0,90,0.01,,,0.07,,2013-02-19 00:12:00,
2013-02-18 19:22:00,48.0,45.0,29.65,SSW,207,20.0,25.0,90,0.00,,,0.07,,2013-02-19 00:22:00,
2013-02-18 19:34:00,48.0,45.0,29.64,SSW,193,17.0,28.0,91,0.00,,,0.07,,2013-02-19 00:34:00,
2013-02-18 19:42:00,48.0,45.0,29.64,SSW,193,17.0,28.0,91,0.00,,,0.07,,2013-02-19 00:42:00,
2013-02-18 19:53:00,48.0,46.0,29.64,SSW,200,15.0,25.0,92,0.00,,,0.07,,2013-02-19 00:53:00,
2013-02-18 20:03:00,47.0,45.0,29.62,SSW,198,15.0,20.0,92,0.00,,,0.07,,2013-02-19 01:03:00,
2013-02-18 20:13:00,47.0,45.0,29.62,SSW,198,15.0,20.0,92,0.00,,,0.07,,2013-02-19 01:13:00,
2013-02-18 20:23:00,47.0,45.0,29.62,SSW,204,13.0,20.0,94,0.00,,,0.07,,2013-02-19 01:23:00,
2013-02-18 20:34:00,47.0,46.0,29.62,South,187,16.0,24.0,96,0.01,,,0.08,,2013-02-19 01:34:00,
2013-02-18 20:43:00,47.0,46.0,29.62,South,187,16.0,24.0,96,0.01,,,0.08,,2013-02-19 01:43:00,
2013-02-18 20:53:00,46.0,45.0,29.62,SSW,207,13.0,17.0,98,0.01,,,0.08,,2013-02-19 01:53:00,
2013-02-18 21:03:00,46.0,46.0,29.60,SSW,201,13.0,23.0,99,0.05,,,0.12,,2013-02-19 02:03:00,
2013-02-18 21:13:00,46.0,46.0,29.60,SSW,201,13.0,23.0,99,0.05,,,0.12,,2013-02-19 02:13:00,
2013-02-18 21:23:00,46.0,46.0,29.59,SSW,202,13.0,20.0,99,0.06,,,0.13,,2013-02-19 02:23:00,
2013-02-18 21:34:00,46.0,46.0,29.57,SSW,195,16.0,25.0,99,0.06,,,0.14,,2013-02-19 02:34:00,
2013-02-18 21:42:00,46.0,46.0,29.57,SSW,195,16.0,25.0,99,0.06,,,0.14,,2013-02-19 02:42:00,
2013-02-18 21:53:00,46.0,46.0,29.57,SSW,198,13.0,17.0,99,0.07,,,0.15,,2013-02-19 02:53:00,
2013-02-18 22:06:00,46.0,46.0,29.57,SSW,193,12.0,14.0,99,0.03,,,0.15,,2013-02-19 03:06:00,
2013-02-18 22:13:00,46.0,46.0,29.57,SSW,193,12.0,14.0,99,0.03,,,0.15,,2013-02-19 03:13:00,
2013-02-18 22:23:00,46.0,46.0,29.57,SSW,210,16.0,30.0,99,0.03,,,0.16,,2013-02-19 03:23:00,
2013-02-18 22:34:00,46.0,46.0,29.56,SSW,208,15.0,20.0,99,0.03,,,0.17,,2013-02-19 03:34:00,
2013-02-18 22:43:00,46.0,46.0,29.56,SSW,208,15.0,20.0,99,0.03,,,0.17,,2013-02-19 03:43:00,
2013-02-18 22:53:00,46.0,46.0,29.55,SW,215,14.0,20.0,99,0.03,,,0.18,,2013-02-19 03:53:00,
2013-02-18 23:02:00,46.0,46.0,29.54,SSW,198,14.0,21.0,99,0.05,,,0.20,,2013-02-19 04:02:00,
2013-02-18 23:13:00,46.0,46.0,29.54,SSW,198,14.0,21.0,99,0.05,,,0.20,,2013-02-19 04:13:00,
2013-02-18 23:23:00,46.0,46.0,29.53,SW,216,15.0,23.0,99,0.05,,,0.21,,2013-02-19 04:23:00,
2013-02-18 23:33:00,46.0,46.0,29.52,SSW,213,14.0,22.0,99,0.05,,,0.22,,2013-02-19 04:33:00,
2013-02-18 23:43:00,46.0,46.0,29.52,SSW,213,14.0,22.0,99,0.05,,,0.22,,2013-02-19 04:43:00,
2013-02-18 23:52:00,46.0,46.0,29.51,SSW,205,18.0,26.0,99,0.05,,,0.23,,2013-02-19 04:52:00,